Hourly Data Report for August 27, 2017

QUALICUM BEACH AIRPORT
BRITISH COLUMBIA

49°20'14.000" N
124°23'38.000" W
58.20 m
1026562
71766
VOQ

Download Data

Hourly Data (August 2017)
Hourly Data Report for August 27, 2017
TIME
LST
Temp Definition
°C
Dew Point Definition
°C
Rel Hum Definition
%
Precip. Amount Definition
mm

Wind Dir Definition
10's deg

Wind Spd Definition
km/h
Visibility Definition
km
Stn Press Definition
kPa
Hmdx Definition


Wind Chill Definition


Weather Definition


00:00 16.5 11.3 72 0.0 28 4   101.38     LegendNANA
01:00 17.5 11.2 67 0.0 27 6   101.38     LegendNANA
02:00 16.3 11.5 73 0.0 27 5   101.38     LegendNANA
03:00 15.8 11.5 76 0.0 27 4   101.35     LegendNANA
04:00 15.2 11.5 78 0.0 27 3   101.36     LegendNANA
05:00 14.8 11.4 80 0.0 27 3   101.36     LegendNANA
06:00 14.8 11.5 80 0.0 28 3   101.39     LegendNANA
07:00 19.2 12.5 65 0.0 30 7   101.42     LegendNANA
08:00 19.7 12.9 65 0.0 32 14   101.41     LegendNANA
09:00 21.2 13.3 60 0.0 31 16   101.41     LegendNANA
10:00 21.6 12.9 58 0.0 32 13   101.39     LegendNANA
11:00 23.8 13.1 51 0.0 31 10   101.31 27   LegendNANA
12:00 24.0 13.5 52 0.0 34 13   101.28 27   LegendNANA
13:00 24.9 13.3 48 0.0 33 14   101.20 28   LegendNANA
14:00 27.2 12.3 40 0.0 31 17   101.14 30   LegendNANA
15:00 28.3 11.8 36 0.0 33 11   101.05 30   LegendNANA
16:00 29.3 11.9 34 0.0 30 13   100.97 32   LegendNANA
17:00 29.2 12.2 35 0.0 31 11   100.93 32   LegendNANA
18:00 29.0 11.9 35 0.0 30 9   100.89 31   LegendNANA
19:00 27.1 11.1 37 0.0 28 10   100.88 29   LegendNANA
20:00 25.4 10.8 40 0.0 30 10   100.90 27   LegendNANA
21:00 24.7 11.3 43 0.0 31 11   100.91 27   LegendNANA
22:00 23.2 11.5 48 0.0 31 10   100.91 25   LegendNANA
23:00 20.5 11.9 58 0.0 31 5   100.92     LegendNANA

Notes on Data Quality.

Legend

  • E = Estimated
  • M = Missing
  • NA = Not Available*
  • [empty] = Indicates an unobserved value
Date modified: